sat.trackr.live / text

‹ back to catalog

STARLINK-2751

NORAD 48685 · 2021-044AZ

PAYLOAD ACTIVE UNKNOWN

§ Identity

Operator
Country
US
Launch date
2021-05-26
Launch site
AFETR
Launch vehicle
Mass (kg)
RCS (m²)

Purposes: comms

External: N2YO · Heavens-Above · Gunter

§ Orbital elements

Epoch: 2026-09-19T23:22:21.889344Z

Period
94.01 min
Inclination
53.1591°
Eccentricity
0.0001229
Mean motion
15.31704518 rev/d
Perigee alt
469.9 km
Apogee alt
471.6 km
Semi-major
6,848.9 km
B*
1.5222e-5
RAAN
240.7450°
Arg perigee
93.4129°
Mean anomaly
266.7013°
Rev number
29,428

§ Raw data

STARLINK-27511 48685U 21044AZ  26262.97386446  .00000107  00000+0  15222-4 0  99902 48685  53.1591 240.7450 0001229  93.4129 266.7013 15.31704518294286

JSON: /api/v1/satellites/48685 · /tle

For live sub-satellite position, see the globe view (requires WebGL).

§ Visibility from observer

Set your observer location to see the next 7 days of passes ≥ 10°. The values pass through the URL so the page stays shareable.

No JS? Fill the form by hand. The geolocation button needs JavaScript.